This is the latest recevied weather packets stored in our database for station/object F4GQK-13. If no packets are shown the sender has not sent any weather packets the latest 10 day(s).
| Time | Temp. | Humidity | Pressure | Rain* | Wind** | Luminosity | Snow |
|---|---|---|---|---|---|---|---|
| 1777272605 | 9.44° C | 83% | 1022.7 hPa | 0 mm | - | 145 W/m² | - |
| 1777272304 | 9.44° C | 84% | 1022.5 hPa | 0 mm | - | 121 W/m² | - |
| 1777272005 | 8.89° C | 84% | 1022.5 hPa | 0 mm | - | 124 W/m² | - |
| 1777271705 | 8.89° C | 84% | 1022.7 hPa | 0 mm | - | 91 W/m² | - |
| 1777271405 | 8.33° C | 85% | 1022.7 hPa | 0 mm | - | 77 W/m² | - |
| 1777271105 | 8.33° C | 87% | 1022.7 hPa | 0 mm | - | 77 W/m² | - |
| 1777270804 | 7.78° C | 89% | 1022.7 hPa | 0 mm | - | 76 W/m² | - |
| 1777270505 | 7.78° C | 90% | 1022.6 hPa | 0 mm | - | 83 W/m² | - |
| 1777270205 | 7.22° C | 91% | 1022.6 hPa | 0 mm | - | 89 W/m² | - |
| 1777269905 | 7.22° C | 92% | 1022.8 hPa | 0 mm | - | 76 W/m² | - |
| 1777269606 | 6.67° C | 92% | 1022.5 hPa | 0 mm | - | 71 W/m² | - |
| 1777269305 | 6.67° C | 92% | 1022.7 hPa | 0 mm | - | 69 W/m² | - |
| 1777269005 | 6.11° C | 92% | 1022.4 hPa | 0 mm | - | 59 W/m² | - |
| 1777268706 | 6.11° C | 92% | 1022.5 hPa | 0 mm | - | 51 W/m² | - |
| 1777268406 | 6.11° C | 93% | 1022.5 hPa | 0 mm | - | 44 W/m² | - |
| 1777268106 | 5.56° C | 93% | 1022.5 hPa | 0 mm | - | 38 W/m² | - |
| 1777267806 | 5.56° C | 93% | 1022.4 hPa | 0 mm | - | 33 W/m² | - |
| 1777267505 | 5.56° C | 93% | 1022.3 hPa | 0 mm | - | 31 W/m² | - |
| 1777267205 | 5.56° C | 93% | 1022.5 hPa | 0 mm | - | 28 W/m² | - |
| 1777266905 | 5.56° C | 93% | 1022.3 hPa | 0 mm | - | 25 W/m² | - |
| 1777266605 | 5.56° C | 93% | 1022.2 hPa | 0 mm | - | 21 W/m² | - |
| 1777266305 | 5° C | 93% | 1022.3 hPa | 0 mm | - | 18 W/m² | - |
| 1777266005 | 5° C | 93% | 1022.2 hPa | 0 mm | - | 14 W/m² | - |
| 1777265705 | 5° C | 93% | 1022.1 hPa | 0 mm | - | 11 W/m² | - |
| 1777265406 | 5° C | 93% | 1022.2 hPa | 0 mm | - | 8 W/m² | - |
* Rain latest hour (hover to see other rain measurements)
** Current wind speed in m/s (hover to see current wind gust speed)